Weather Roundup
Issued by NWS Springfield, MO

Home | Current Version | Previous Version | Text Only | Print | Product List | Glossary On
Versions: 1 2 3 4 5 6 7 8 9 10 11 12 13 14 15 16 17 18 19 20 21 22 23 24 25 26 27 28 29 30 31 32 33 34 35 36 37 38 39 40 41 42 43 44 45 46 47 48 49 50
000
NZUS99 KSGF 281007
HRRSGF

HOURLY WEATHER
NATIONAL WEATHER SERVICE SPRINGFIELD MO
500 AM CDT TUE APR 28 2015

......SGF CWA......

CITY           SKY/WX    TMP DP  RH WIND       PRES   REMARKS
SPRINGFIELD    PTCLDY    40  34  79 S3        30.08R
JOPLIN         PTCLDY    47  38  71 NE6       30.09S
WEST PLAINS    PTCLDY    45  36  70 NE3       30.07R
ROLLA          CLEAR     40  35  83 NE5       30.08S
OSAGE BEACH    CLEAR     45  36  70 NE7       30.09F
BRANSON        CLOUDY    48  36  61 CALM      30.08R

......SURROUNDING SGF CWA......

CITY           SKY/WX    TMP DP  RH WIND       PRES   REMARKS
CHANUTE        PTCLDY    47  39  74 N6        30.11R
PARSONS        MOCLDY    50  40  68 VRB3      30.11R
COFFEYVILLE    CLOUDY    49  41  74 NE8       30.09R
EMPORIA        CLOUDY    46  38  73 N6        30.13R
GROVE OK       CLOUDY    52  41  66 CALM      30.08S
ROGERS AR      CLOUDY    50  37  61 NE7       30.07R
SILOAM SPRINGS CLOUDY   N/A N/A N/A NE7       30.06S
HARRISON AR    CLOUDY    47  38  71 CALM      30.07R
NEAR YELLVILLE CLOUDY    48  37  66 N5        30.05S

......KANSAS AND MISSOURI......

CITY           SKY/WX    TMP DP  RH WIND       PRES   REMARKS
KANSAS CTY INT PTCLDY    45  36  70 NE6       30.15R
DOWNTOWN KC    MOCLDY    47  40  76 CALM      30.14R
COLUMBIA       CLEAR     44  37  76 NE8       30.12S
SEDALIA        PTCLDY    46  37  71 N5        30.14R
ST JOSEPH      PTCLDY    41  37  86 CALM      30.16S
ST LOUIS       CLEAR     44  37  76 CALM      30.12R
SPIRIT OF STL  CLEAR     39  37  92 CALM      30.11S
KIRKSVILLE     CLEAR     38  37  97 NW3       30.15S
WICHITA        MOCLDY    49  39  68 N9        30.13R
TOPEKA         MOCLDY    44  38  79 CALM      30.16R
OLATHE         MOCLDY    49  37  63 N6        30.13R

......TENNESSEE......

CITY           SKY/WX    TMP DP  RH WIND       PRES   REMARKS
MEMPHIS        CLOUDY    55  40  56 NE8       29.98R
NASHVILLE      CLEAR     46  40  79 N7        29.99R

......ARKANSAS.......

CITY           SKY/WX    TMP DP  RH WIND       PRES   REMARKS
FAYETTEVILLE   CLOUDY    50  45  83 CALM      30.05S
FT SMITH       RAIN      53  49  86 NE7       30.03S
LITTLE ROCK    CLOUDY    56  43  61 N7        30.00F

......OKLAHOMA.......

CITY           SKY/WX    TMP DP  RH WIND       PRES   REMARKS
TULSA          LGT RAIN  52  48  86 CALM      30.08R
PONCA CITY     CLOUDY    50  48  93 W5        30.12R
MCALESTER      CLOUDY    53  51  93 N10       30.03R
OKLAHOMA CITY  CLOUDY    50  45  83 N8        30.08R

......IOWA............

CITY           SKY/WX    TMP DP  RH WIND       PRES   REMARKS
DES MOINES     CLEAR     47  37  68 CALM      30.16S
QUAD CITIES    CLEAR     38  34  85 E6        30.15R WCI  33

......ILLINOIS........

CITY           SKY/WX    TMP DP  RH WIND       PRES   REMARKS
QUINCY         CLEAR     44  35  70 CALM      30.14R
CHICAGO        CLEAR     37  32  82 W3        30.14R



USA.gov is the U.S. government's official web portal to all federal, state and local government web resources and services.